WUK8380 EGGW-LEBL

Flight info

Callsign WUK8380
Flight time 1h 51m
Altitude 35000
Route RODNI N27 ICTAM Q63 CPT N859 VAPID UN859 SOPIL DCT BALAN DCT EVPOK DCT NARAK DCT GAI DCT LOMRA DCT ROCAN DCT PUMAL
Aircraft A21N/M-SDE1E2E3FGIJ1J4RWXY/LB1

Departure

Time 2026-04-30 10:28
Airport London Luton Airport (EGGW)

Arrival

Time 2026-04-30 12:19
Airport Josep Tarradellas Barcelona-El Prat Airport (LEBL)
Time Latitude Longitude Altitude Speed Heading
2026-04-30 09:33 51.87958 -0.37904 529 ft 0 kts 127°
2026-04-30 10:11 51.87962 -0.37913 529 ft 4 kts 127°
2026-04-30 10:11 51.87978 -0.37947 529 ft 4 kts 128°
2026-04-30 10:12 51.87993 -0.37962 529 ft 4 kts 200°
2026-04-30 10:12 51.88009 -0.37945 529 ft 4 kts 218°
2026-04-30 10:12 51.88019 -0.37932 529 ft 0 kts 218°
2026-04-30 10:18 51.88011 -0.37944 529 ft 5 kts 218°
2026-04-30 10:19 51.87948 -0.38013 529 ft 3 kts 209°
2026-04-30 10:19 51.87941 -0.38019 529 ft 0 kts 208°
2026-04-30 10:19 51.87932 -0.38027 529 ft 3 kts 208°
2026-04-30 10:19 51.87921 -0.38034 529 ft 2 kts 205°
2026-04-30 10:20 51.87915 -0.38039 529 ft 0 kts 203°
2026-04-30 10:20 51.87895 -0.38050 529 ft 2 kts 195°
2026-04-30 10:21 51.87884 -0.38053 529 ft 1 kts 192°
2026-04-30 10:21 51.87883 -0.38054 529 ft 0 kts 192°
2026-04-30 10:22 51.87874 -0.38049 529 ft 4 kts 141°
2026-04-30 10:22 51.87838 -0.37997 529 ft 9 kts 133°
2026-04-30 10:22 51.87795 -0.37896 529 ft 13 kts 116°
2026-04-30 10:23 51.87752 -0.37753 529 ft 16 kts 116°
2026-04-30 10:23 51.87703 -0.37579 531 ft 19 kts 115°
2026-04-30 10:23 51.87590 -0.37458 531 ft 21 kts 176°
2026-04-30 10:23 51.87491 -0.37614 529 ft 23 kts 253°
2026-04-30 10:24 51.87445 -0.37873 529 ft 25 kts 254°
2026-04-30 10:24 51.87426 -0.37978 530 ft 5 kts 248°
2026-04-30 10:24 51.87410 -0.38021 531 ft 0 kts 231°
2026-04-30 10:25 51.87409 -0.38021 531 ft 1 kts 231°
2026-04-30 10:25 51.87400 -0.38034 530 ft 3 kts 218°
2026-04-30 10:26 51.87371 -0.38058 529 ft 7 kts 200°
2026-04-30 10:26 51.87323 -0.38095 528 ft 9 kts 205°
2026-04-30 10:26 51.87255 -0.38145 529 ft 13 kts 231°
2026-04-30 10:26 51.87239 -0.38258 528 ft 0 kts 295°
2026-04-30 10:27 51.87223 -0.38320 526 ft 8 kts 183°
2026-04-30 10:27 51.87218 -0.38274 527 ft 1 kts 69°
2026-04-30 10:27 51.87230 -0.38198 529 ft 9 kts 75°
2026-04-30 10:27 51.87285 -0.37876 530 ft 74 kts 75°
2026-04-30 10:28 51.87517 -0.36497 582 ft 171 kts 73°
2026-04-30 10:28 51.87868 -0.34696 2055 ft 170 kts 75°
2026-04-30 10:28 51.88251 -0.32854 3309 ft 188 kts 76°
2026-04-30 10:28 51.88675 -0.30599 3768 ft 220 kts 80°
2026-04-30 10:29 51.89065 -0.28047 3955 ft 236 kts 79°
2026-04-30 10:29 51.89405 -0.25459 4006 ft 235 kts 88°
2026-04-30 10:29 51.89228 -0.22863 4000 ft 232 kts 108°
2026-04-30 10:29 51.88461 -0.20570 3986 ft 234 kts 127°
2026-04-30 10:30 51.87204 -0.18887 3991 ft 241 kts 147°
2026-04-30 10:30 51.85564 -0.18065 3995 ft 248 kts 168°
2026-04-30 10:30 51.83806 -0.18379 3998 ft 271 kts 191°
2026-04-30 10:30 51.82120 -0.19988 3999 ft 289 kts 218°
2026-04-30 10:31 51.81058 -0.22698 3967 ft 289 kts 248°
2026-04-30 10:31 51.80859 -0.25938 3979 ft 302 kts 276°
2026-04-30 10:31 51.81581 -0.29004 4434 ft 291 kts 301°
2026-04-30 10:31 51.82518 -0.31736 5670 ft 296 kts 292°
2026-04-30 10:32 51.82828 -0.35004 7054 ft 294 kts 262°
2026-04-30 10:32 51.82386 -0.38215 8413 ft 293 kts 250°
2026-04-30 10:32 51.81822 -0.41397 9686 ft 298 kts 250°
2026-04-30 10:32 51.81248 -0.44682 10814 ft 308 kts 251°
2026-04-30 10:33 51.80688 -0.48135 11645 ft 327 kts 252°
2026-04-30 10:33 51.80123 -0.51809 12492 ft 343 kts 253°
2026-04-30 10:33 51.79548 -0.55573 13628 ft 347 kts 253°
2026-04-30 10:33 51.78991 -0.59257 14725 ft 351 kts 253°
2026-04-30 10:34 51.78404 -0.63113 15766 ft 356 kts 253°
2026-04-30 10:34 51.77802 -0.67038 16818 ft 362 kts 253°
2026-04-30 10:34 51.77203 -0.70944 17806 ft 368 kts 252°
2026-04-30 10:34 51.76578 -0.74987 18769 ft 374 kts 252°
2026-04-30 10:35 51.75680 -0.78927 19589 ft 373 kts 236°
2026-04-30 10:35 51.74117 -0.82230 20460 ft 369 kts 221°
2026-04-30 10:35 51.72289 -0.85161 21327 ft 373 kts 218°
2026-04-30 10:35 51.70426 -0.88075 22183 ft 378 kts 218°
2026-04-30 10:36 51.68535 -0.91050 23027 ft 383 kts 218°
2026-04-30 10:36 51.66621 -0.94089 23856 ft 388 kts 218°
2026-04-30 10:36 51.64690 -0.97172 24565 ft 393 kts 218°
2026-04-30 10:36 51.62742 -1.00287 25275 ft 397 kts 218°
2026-04-30 10:37 51.60773 -1.03436 25967 ft 401 kts 218°
2026-04-30 10:37 51.58811 -1.06572 26633 ft 405 kts 218°
2026-04-30 10:37 51.56771 -1.09823 27308 ft 409 kts 218°
2026-04-30 10:37 51.54827 -1.12917 28043 ft 409 kts 218°
2026-04-30 10:38 51.52808 -1.16137 28922 ft 407 kts 218°
2026-04-30 10:38 51.50710 -1.19107 29785 ft 395 kts 206°
2026-04-30 10:38 51.48291 -1.20916 30516 ft 377 kts 188°
2026-04-30 10:38 51.45742 -1.21358 31081 ft 363 kts 170°
2026-04-30 10:39 51.43348 -1.20398 31637 ft 351 kts 150°
2026-04-30 10:39 51.41356 -1.18235 32203 ft 346 kts 138°
2026-04-30 10:39 51.39474 -1.15823 32766 ft 347 kts 141°
2026-04-30 10:39 51.37425 -1.13747 33321 ft 349 kts 147°
2026-04-30 10:40 51.35290 -1.11941 33879 ft 350 kts 150°
2026-04-30 10:40 51.33092 -1.10246 34403 ft 350 kts 151°
2026-04-30 10:40 51.30892 -1.08606 34811 ft 351 kts 152°
2026-04-30 10:40 51.28688 -1.06980 35144 ft 354 kts 152°
2026-04-30 10:41 51.26441 -1.05334 35260 ft 353 kts 152°
2026-04-30 10:41 51.24242 -1.03723 35266 ft 354 kts 152°
2026-04-30 10:41 51.22023 -1.02099 35266 ft 366 kts 152°
2026-04-30 10:41 51.19656 -1.00376 35256 ft 378 kts 153°
2026-04-30 10:42 51.17231 -0.98608 35251 ft 391 kts 153°
2026-04-30 10:42 51.14714 -0.96778 35247 ft 403 kts 153°
2026-04-30 10:42 51.09510 -0.93003 35240 ft 414 kts 153°
2026-04-30 10:43 51.05139 -0.89836 35231 ft 415 kts 153°
2026-04-30 10:43 50.99007 -0.85440 35221 ft 416 kts 154°
2026-04-30 10:44 50.94586 -0.82261 35223 ft 417 kts 154°
2026-04-30 10:44 50.89330 -0.78473 35222 ft 418 kts 154°
2026-04-30 10:45 50.84138 -0.74360 35220 ft 417 kts 147°
2026-04-30 10:45 50.79290 -0.69414 35225 ft 417 kts 146°
2026-04-30 10:46 50.74415 -0.64429 35227 ft 417 kts 147°
2026-04-30 10:46 50.69526 -0.59458 35222 ft 418 kts 147°
2026-04-30 10:47 50.64662 -0.54529 35221 ft 419 kts 147°
2026-04-30 10:47 50.59763 -0.49587 35217 ft 418 kts 148°
2026-04-30 10:48 50.57361 -0.47166 35208 ft 399 kts 148°
2026-04-30 10:48 50.55007 -0.44797 35209 ft 408 kts 148°
2026-04-30 10:48 50.50135 -0.39904 35217 ft 418 kts 149°
2026-04-30 10:49 50.45225 -0.34988 35211 ft 418 kts 149°
2026-04-30 10:49 50.40312 -0.30069 35209 ft 419 kts 149°
2026-04-30 10:50 50.35377 -0.25148 35207 ft 421 kts 150°
2026-04-30 10:50 50.30451 -0.20257 35197 ft 422 kts 150°
2026-04-30 10:51 50.25475 -0.15320 35202 ft 424 kts 150°
2026-04-30 10:51 50.20513 -0.10415 35198 ft 425 kts 150°
2026-04-30 10:52 50.15499 -0.05469 35201 ft 427 kts 151°
2026-04-30 10:52 50.10412 -0.00603 35196 ft 427 kts 156°
2026-04-30 10:53 50.07636 0.00972 35194 ft 423 kts 167°
2026-04-30 10:53 50.04776 0.02115 35192 ft 424 kts 168°
2026-04-30 10:53 49.99039 0.04317 35188 ft 426 kts 168°
2026-04-30 10:54 49.93279 0.06572 35184 ft 427 kts 168°
2026-04-30 10:54 49.87536 0.08822 35178 ft 429 kts 168°
2026-04-30 10:55 49.81700 0.11104 35163 ft 431 kts 168°
2026-04-30 10:55 49.75910 0.13363 35155 ft 432 kts 168°
2026-04-30 10:56 49.70101 0.15628 35148 ft 434 kts 168°
2026-04-30 10:56 49.64248 0.17929 35146 ft 435 kts 168°
2026-04-30 10:57 49.58385 0.20293 35140 ft 436 kts 168°
2026-04-30 10:57 49.52517 0.22654 35143 ft 436 kts 168°
2026-04-30 10:58 49.46632 0.25022 35142 ft 437 kts 168°
2026-04-30 10:58 49.40740 0.27394 35145 ft 438 kts 168°
2026-04-30 10:59 49.34834 0.29755 35139 ft 439 kts 168°
2026-04-30 10:59 49.28925 0.32120 35139 ft 439 kts 167°
2026-04-30 11:00 49.23027 0.34628 35135 ft 439 kts 167°
2026-04-30 11:00 49.17189 0.37106 35133 ft 439 kts 167°
2026-04-30 11:01 49.11291 0.39575 35121 ft 439 kts 167°
2026-04-30 11:01 49.05388 0.42045 35095 ft 439 kts 167°
2026-04-30 11:02 48.99503 0.44510 35086 ft 439 kts 167°
2026-04-30 11:02 48.93614 0.46970 35089 ft 438 kts 167°
2026-04-30 11:03 48.87732 0.49411 35084 ft 437 kts 167°
2026-04-30 11:04 48.78929 0.53056 35082 ft 437 kts 167°
2026-04-30 11:04 48.73095 0.55366 35079 ft 436 kts 168°
2026-04-30 11:05 48.67226 0.57654 35073 ft 435 kts 168°
2026-04-30 11:05 48.61361 0.59945 35071 ft 435 kts 168°
2026-04-30 11:06 48.55519 0.62217 35063 ft 435 kts 168°
2026-04-30 11:06 48.49651 0.64528 35058 ft 436 kts 167°
2026-04-30 11:07 48.43805 0.66914 35055 ft 436 kts 167°
2026-04-30 11:07 48.38007 0.69286 35054 ft 436 kts 167°
2026-04-30 11:08 48.32133 0.71667 35056 ft 436 kts 167°
2026-04-30 11:08 48.26272 0.74030 35044 ft 436 kts 167°
2026-04-30 11:09 48.20408 0.76355 35043 ft 435 kts 168°
2026-04-30 11:09 48.14533 0.78637 35036 ft 436 kts 168°
2026-04-30 11:10 48.08671 0.80933 35029 ft 436 kts 168°
2026-04-30 11:10 48.02807 0.83243 35031 ft 436 kts 167°
2026-04-30 11:11 47.96975 0.85535 35027 ft 435 kts 168°
2026-04-30 11:11 47.91148 0.87798 35028 ft 435 kts 168°
2026-04-30 11:12 47.85288 0.90066 35020 ft 435 kts 168°
2026-04-30 11:12 47.79424 0.92356 35013 ft 436 kts 168°
2026-04-30 11:13 47.73558 0.94631 35017 ft 435 kts 168°
2026-04-30 11:13 47.67698 0.96899 35031 ft 435 kts 168°
2026-04-30 11:14 47.61834 0.99166 35045 ft 435 kts 168°
2026-04-30 11:14 47.55959 1.01417 35058 ft 436 kts 168°
2026-04-30 11:15 47.50093 1.03671 35062 ft 436 kts 168°
2026-04-30 11:15 47.44214 1.05888 35055 ft 435 kts 170°
2026-04-30 11:16 47.38248 1.06391 35054 ft 431 kts 183°
2026-04-30 11:16 47.32297 1.06188 35050 ft 431 kts 183°
2026-04-30 11:17 47.26300 1.06034 35042 ft 431 kts 183°
2026-04-30 11:17 47.20338 1.05890 35026 ft 431 kts 183°
2026-04-30 11:18 47.14317 1.05747 35015 ft 430 kts 182°
2026-04-30 11:18 47.05340 1.05541 35011 ft 430 kts 183°
2026-04-30 11:19 46.99363 1.05361 35009 ft 429 kts 184°
2026-04-30 11:19 46.93369 1.05081 34959 ft 435 kts 180°
2026-04-30 11:20 46.87343 1.04822 35000 ft 436 kts 180°
2026-04-30 11:20 46.81310 1.04564 35006 ft 436 kts 180°
2026-04-30 11:21 46.75245 1.04309 35004 ft 436 kts 180°
2026-04-30 11:21 46.69183 1.04048 34996 ft 436 kts 180°
2026-04-30 11:22 46.63124 1.03798 35004 ft 435 kts 180°
2026-04-30 11:22 46.57067 1.03541 35007 ft 435 kts 180°
2026-04-30 11:23 46.51027 1.03585 35005 ft 433 kts 171°
2026-04-30 11:24 46.42208 1.06431 35013 ft 433 kts 166°
2026-04-30 11:24 46.36344 1.08421 35009 ft 433 kts 166°
2026-04-30 11:25 46.27574 1.11348 35018 ft 433 kts 166°
2026-04-30 11:26 46.15853 1.15240 35052 ft 433 kts 166°
2026-04-30 11:26 46.09981 1.17182 35078 ft 433 kts 166°
2026-04-30 11:27 46.04102 1.19120 35104 ft 433 kts 166°
2026-04-30 11:27 45.98234 1.21053 35128 ft 433 kts 166°
2026-04-30 11:28 45.89426 1.23949 35134 ft 433 kts 166°
2026-04-30 11:29 45.83556 1.25870 35139 ft 432 kts 166°
2026-04-30 11:29 45.74756 1.28744 35127 ft 432 kts 166°
2026-04-30 11:30 45.69131 1.30570 35091 ft 408 kts 166°
2026-04-30 11:30 45.66316 1.31489 35091 ft 420 kts 166°
2026-04-30 11:31 45.60547 1.33362 35090 ft 429 kts 166°
2026-04-30 11:31 45.54722 1.35224 35059 ft 429 kts 166°
2026-04-30 11:32 45.48888 1.37130 35040 ft 429 kts 166°
2026-04-30 11:32 45.44045 1.38700 35040 ft 429 kts 166°
2026-04-30 11:33 45.35445 1.41472 35060 ft 429 kts 167°
2026-04-30 11:33 45.29594 1.43344 35073 ft 432 kts 166°
2026-04-30 11:34 45.23726 1.45227 35102 ft 433 kts 167°
2026-04-30 11:34 45.17848 1.47106 35126 ft 433 kts 167°
2026-04-30 11:35 45.12006 1.48964 35140 ft 433 kts 167°
2026-04-30 11:35 45.06150 1.50832 35144 ft 434 kts 167°
2026-04-30 11:36 45.00249 1.52714 35135 ft 435 kts 167°
2026-04-30 11:36 44.94342 1.54591 35140 ft 435 kts 167°
2026-04-30 11:37 44.88438 1.56449 35127 ft 435 kts 167°
2026-04-30 11:37 44.82519 1.58320 35125 ft 436 kts 168°
2026-04-30 11:38 44.76598 1.60183 35123 ft 435 kts 168°
2026-04-30 11:38 44.70677 1.62048 35117 ft 436 kts 168°
2026-04-30 11:39 44.64758 1.63908 35120 ft 437 kts 168°
2026-04-30 11:39 44.58823 1.65768 35120 ft 437 kts 168°
2026-04-30 11:40 44.52872 1.67626 35120 ft 437 kts 168°
2026-04-30 11:40 44.46953 1.69467 35113 ft 438 kts 169°
2026-04-30 11:41 44.41002 1.71318 35115 ft 438 kts 169°
2026-04-30 11:41 44.35086 1.73150 35117 ft 439 kts 169°
2026-04-30 11:42 44.29111 1.74957 35113 ft 438 kts 172°
2026-04-30 11:42 44.23090 1.76310 35118 ft 438 kts 173°
2026-04-30 11:43 44.17063 1.77644 35126 ft 439 kts 173°
2026-04-30 11:43 44.11032 1.78972 35123 ft 439 kts 173°
2026-04-30 11:44 44.05045 1.80291 35129 ft 439 kts 174°
2026-04-30 11:44 43.98954 1.81627 35107 ft 440 kts 174°
2026-04-30 11:45 43.92889 1.82659 35109 ft 438 kts 179°
2026-04-30 11:45 43.86834 1.83259 35114 ft 439 kts 179°
2026-04-30 11:46 43.80795 1.83849 35119 ft 439 kts 179°
2026-04-30 11:46 43.74691 1.84442 35125 ft 440 kts 179°
2026-04-30 11:47 43.68586 1.85032 35120 ft 440 kts 180°
2026-04-30 11:47 43.62459 1.85623 35102 ft 441 kts 180°
2026-04-30 11:48 43.56332 1.86214 35121 ft 442 kts 180°
2026-04-30 11:48 43.50198 1.86803 35123 ft 442 kts 180°
2026-04-30 11:49 43.44062 1.87390 35118 ft 442 kts 180°
2026-04-30 11:49 43.37911 1.87981 35110 ft 443 kts 181°
2026-04-30 11:50 43.31757 1.88568 35104 ft 443 kts 181°
2026-04-30 11:50 43.25650 1.89154 35110 ft 444 kts 181°
2026-04-30 11:51 43.19484 1.89745 35108 ft 444 kts 181°
2026-04-30 11:51 43.13362 1.90332 35097 ft 429 kts 181°
2026-04-30 11:52 43.10455 1.90618 35084 ft 409 kts 181°
2026-04-30 11:52 43.07582 1.90887 35094 ft 420 kts 181°
2026-04-30 11:52 43.04628 1.91160 35107 ft 432 kts 181°
2026-04-30 11:52 43.01597 1.91442 35109 ft 437 kts 181°
2026-04-30 11:53 42.95517 1.92022 35111 ft 438 kts 181°
2026-04-30 11:53 42.89425 1.92597 35106 ft 439 kts 181°
2026-04-30 11:54 42.83334 1.93167 35108 ft 439 kts 181°
2026-04-30 11:54 42.77265 1.93738 35109 ft 440 kts 181°
2026-04-30 11:55 42.71119 1.94323 35124 ft 440 kts 182°
2026-04-30 11:55 42.65085 1.95124 35130 ft 444 kts 177°
2026-04-30 11:56 42.61935 1.95763 35137 ft 458 kts 177°
2026-04-30 11:56 42.58794 1.96402 35145 ft 469 kts 177°
2026-04-30 11:56 42.52421 1.97708 35133 ft 449 kts 178°
2026-04-30 11:57 42.46292 1.98926 35127 ft 444 kts 178°
2026-04-30 11:57 42.40179 2.00143 35128 ft 444 kts 178°
2026-04-30 11:58 42.34182 2.01170 34723 ft 423 kts 181°
2026-04-30 11:58 42.31250 2.01522 33919 ft 423 kts 182°
2026-04-30 11:58 42.28313 2.01870 32897 ft 426 kts 181°
2026-04-30 11:59 42.25348 2.02223 31832 ft 430 kts 181°
2026-04-30 11:59 42.22350 2.02582 30781 ft 434 kts 180°
2026-04-30 11:59 42.19340 2.02722 29649 ft 429 kts 189°
2026-04-30 11:59 42.16486 2.01799 28642 ft 416 kts 206°
2026-04-30 12:00 42.14016 1.99928 27776 ft 403 kts 219°
2026-04-30 12:00 42.11889 1.97585 26787 ft 401 kts 224°
2026-04-30 12:00 42.09771 1.95137 25841 ft 399 kts 223°
2026-04-30 12:00 42.07694 1.92772 24982 ft 396 kts 223°
2026-04-30 12:01 42.05589 1.90415 24157 ft 393 kts 222°
2026-04-30 12:01 42.03486 1.88074 23286 ft 391 kts 221°
2026-04-30 12:01 42.01395 1.85761 22394 ft 386 kts 221°
2026-04-30 12:01 41.99329 1.83481 21565 ft 381 kts 221°
2026-04-30 12:02 41.97292 1.81229 20783 ft 376 kts 221°
2026-04-30 12:02 41.95282 1.79011 20017 ft 372 kts 221°
2026-04-30 12:02 41.93291 1.76821 19264 ft 367 kts 220°
2026-04-30 12:02 41.91326 1.74662 18567 ft 363 kts 220°
2026-04-30 12:03 41.89385 1.72528 17807 ft 359 kts 220°
2026-04-30 12:03 41.85560 1.68322 16496 ft 352 kts 220°
2026-04-30 12:03 41.83666 1.66250 16054 ft 350 kts 219°
2026-04-30 12:04 41.81785 1.64190 15651 ft 348 kts 220°
2026-04-30 12:04 41.79920 1.62143 15246 ft 346 kts 220°
2026-04-30 12:04 41.78060 1.60107 14849 ft 344 kts 219°
2026-04-30 12:04 41.76212 1.58084 14432 ft 341 kts 219°
2026-04-30 12:05 41.74376 1.56104 13851 ft 336 kts 217°
2026-04-30 12:05 41.72336 1.54692 13362 ft 328 kts 198°
2026-04-30 12:05 41.70175 1.54060 13030 ft 316 kts 192°
2026-04-30 12:05 41.68078 1.53561 12714 ft 303 kts 192°
2026-04-30 12:06 41.65994 1.53059 12287 ft 299 kts 192°
2026-04-30 12:06 41.63980 1.52561 11856 ft 297 kts 192°
2026-04-30 12:06 41.61950 1.52054 11434 ft 296 kts 192°
2026-04-30 12:06 41.59929 1.51544 11018 ft 295 kts 192°
2026-04-30 12:07 41.57925 1.51032 10620 ft 289 kts 192°
2026-04-30 12:07 41.55981 1.50535 10307 ft 281 kts 192°
2026-04-30 12:07 41.54037 1.50331 9942 ft 282 kts 177°
2026-04-30 12:07 41.52090 1.50712 9717 ft 283 kts 172°
2026-04-30 12:08 41.50159 1.51169 9563 ft 282 kts 172°
2026-04-30 12:08 41.48225 1.51622 9427 ft 282 kts 172°
2026-04-30 12:08 41.46286 1.52068 9297 ft 282 kts 172°
2026-04-30 12:08 41.44365 1.52553 9077 ft 279 kts 166°
2026-04-30 12:09 41.42679 1.53734 8760 ft 273 kts 143°
2026-04-30 12:09 41.41301 1.55463 8372 ft 270 kts 136°
2026-04-30 12:09 41.39985 1.57245 7974 ft 269 kts 136°
2026-04-30 12:09 41.38675 1.58999 7576 ft 267 kts 137°
2026-04-30 12:10 41.37358 1.60741 7160 ft 265 kts 137°
2026-04-30 12:10 41.36053 1.62456 6856 ft 260 kts 136°
2026-04-30 12:10 41.34788 1.64113 6684 ft 250 kts 137°
2026-04-30 12:10 41.33590 1.65679 6554 ft 238 kts 137°
2026-04-30 12:11 41.32436 1.67184 6347 ft 227 kts 137°
2026-04-30 12:11 41.31320 1.68637 5968 ft 221 kts 136°
2026-04-30 12:11 41.30269 1.70002 5726 ft 203 kts 136°
2026-04-30 12:11 41.29266 1.71306 5332 ft 200 kts 136°
2026-04-30 12:12 41.28276 1.72592 4933 ft 199 kts 135°
2026-04-30 12:12 41.27288 1.73873 4481 ft 198 kts 135°
2026-04-30 12:12 41.26296 1.75159 4030 ft 199 kts 135°
2026-04-30 12:12 41.25311 1.76441 3677 ft 195 kts 134°
2026-04-30 12:13 41.24382 1.77655 3459 ft 186 kts 134°
2026-04-30 12:13 41.23474 1.78838 3258 ft 175 kts 133°
2026-04-30 12:13 41.22586 1.79992 2981 ft 185 kts 134°
2026-04-30 12:13 41.21693 1.81217 2940 ft 185 kts 127°
2026-04-30 12:14 41.21306 1.82802 2948 ft 182 kts 90°
2026-04-30 12:14 41.21645 1.84362 2972 ft 168 kts 66°
2026-04-30 12:14 41.22121 1.85723 2981 ft 161 kts 66°
2026-04-30 12:14 41.22592 1.87077 2989 ft 161 kts 66°
2026-04-30 12:15 41.23055 1.88423 2952 ft 159 kts 66°
2026-04-30 12:15 41.23361 1.89314 2880 ft 162 kts 66°
2026-04-30 12:15 41.23918 1.90941 2654 ft 160 kts 65°
2026-04-30 12:15 41.24399 1.92346 2448 ft 159 kts 65°
2026-04-30 12:16 41.24699 1.93221 2319 ft 158 kts 65°
2026-04-30 12:16 41.25304 1.94987 2023 ft 158 kts 66°
2026-04-30 12:16 41.25756 1.96311 1806 ft 155 kts 65°
2026-04-30 12:16 41.26211 1.97639 1593 ft 159 kts 66°
2026-04-30 12:17 41.26931 1.99739 1255 ft 136 kts 65°
2026-04-30 12:17 41.27320 2.00841 1016 ft 131 kts 66°
2026-04-30 12:17 41.27809 2.02278 779 ft 127 kts 67°
2026-04-30 12:18 41.28050 2.03006 654 ft 127 kts 66°
2026-04-30 12:18 41.28409 2.04060 469 ft 128 kts 67°
2026-04-30 12:18 41.28776 2.05135 334 ft 126 kts 66°
2026-04-30 12:18 41.29130 2.06184 178 ft 126 kts 66°
2026-04-30 12:19 41.29487 2.07205 40 ft 124 kts 65°
2026-04-30 12:19 41.29831 2.08207 18 ft 113 kts 66°
2026-04-30 12:19 41.30121 2.09063 10 ft 92 kts 65°
2026-04-30 12:19 41.30322 2.09647 9 ft 15 kts 65°
2026-04-30 12:20 41.30355 2.09737 9 ft 1 kts 59°
2026-04-30 12:20 41.30381 2.09763 9 ft 11 kts 23°
2026-04-30 12:20 41.30455 2.09743 9 ft 11 kts 341°
2026-04-30 12:20 41.30499 2.09711 9 ft 6 kts 286°
2026-04-30 12:21 41.30520 2.09660 8 ft 9 kts 354°
2026-04-30 12:21 41.30549 2.09582 9 ft 13 kts 257°
2026-04-30 12:21 41.30503 2.09462 9 ft 16 kts 245°
2026-04-30 12:21 41.30454 2.09310 12 ft 20 kts 247°
2026-04-30 12:22 41.30393 2.09126 11 ft 23 kts 245°
2026-04-30 12:22 41.30331 2.08946 8 ft 21 kts 245°
2026-04-30 12:22 41.30270 2.08771 8 ft 10 kts 245°
2026-04-30 12:22 41.30236 2.08671 9 ft 14 kts 245°
2026-04-30 12:23 41.30198 2.08562 8 ft 17 kts 245°
2026-04-30 12:23 41.30145 2.08406 8 ft 20 kts 245°
2026-04-30 12:23 41.30084 2.08225 8 ft 23 kts 246°
2026-04-30 12:23 41.30021 2.08037 9 ft 16 kts 245°
2026-04-30 12:24 41.29970 2.07889 8 ft 19 kts 245°
2026-04-30 12:24 41.29912 2.07723 8 ft 22 kts 245°
2026-04-30 12:24 41.29843 2.07528 8 ft 25 kts 245°
2026-04-30 12:24 41.29769 2.07314 8 ft 19 kts 245°
2026-04-30 12:25 41.29768 2.07220 9 ft 12 kts 306°
2026-04-30 12:25 41.29849 2.07168 8 ft 7 kts 342°
2026-04-30 12:25 41.29906 2.07136 9 ft 11 kts 343°
2026-04-30 12:25 41.29982 2.07162 8 ft 3 kts 37°
2026-04-30 12:26 41.30006 2.07185 9 ft 6 kts 29°
2026-04-30 12:26 41.30025 2.07198 8 ft 2 kts 30°
2026-04-30 12:26 41.30034 2.07206 8 ft 0 kts 30°